When you browse on this site, cookies collect data to enhance your experience and personalize the content and advertising you see.
Visit our Privacy Policy to learn more. By continuing to use the site, you agree to this use of cookies and data.
  • en Suisse
  • Liste des pays
  • À 7 jours
  • Température de l'eau
  • Carte météo
  • Widgets météo
  • user-avatar
    Se connecter

    Météo par heure à Korosten

    Ce jour, 5 Avril, Dimanche

    Heure Température Précipitation Vent Pression Humidité
    00:00 +2°C° 0 mm 2 m/s 755 mmHg 53%
    01:00 +2°C° 0 mm 2 m/s 755 mmHg 55%
    02:00 +2°C° 0 mm 2 m/s 755 mmHg 57%
    03:00 +1°C° 0 mm 2 m/s 756 mmHg 58%
    04:00 +1°C° 0 mm 2 m/s 756 mmHg 59%
    05:00 +1°C° 0 mm 2 m/s 757 mmHg 60%
    06:00 +1°C° 0 mm 3 m/s 757 mmHg 58%
    07:00 +2°C° 0 mm 3 m/s 757 mmHg 56%
    08:00 +3°C° 0 mm 3 m/s 758 mmHg 54%
    09:00 +5°C° 0 mm 4 m/s 758 mmHg 49%
    10:00 +6°C° 0 mm 4 m/s 758 mmHg 43%
    11:00 +7°C° 0 mm 4 m/s 759 mmHg 37%
    12:00 +8°C° 0 mm 4 m/s 759 mmHg 35%
    13:00 +8°C° 0 mm 4 m/s 759 mmHg 33%
    14:00 +10°C° 0 mm 4 m/s 759 mmHg 30%
    15:00 +10°C° 0 mm 3 m/s 759 mmHg 32%
    16:00 +10°C° 0 mm 3 m/s 758 mmHg 34%
    17:00 +9°C° 0 mm 3 m/s 758 mmHg 35%
    18:00 +8°C° 0 mm 2 m/s 759 mmHg 40%
    19:00 +6°C° 0 mm 2 m/s 759 mmHg 45%
    20:00 +6°C° 0 mm 1 m/s 759 mmHg 50%
    21:00 +5°C° 0 mm 1 m/s 759 mmHg 51%
    22:00 +5°C° 0 mm 1 m/s 759 mmHg 53%
    23:00 +4°C° 0 mm 1 m/s 760 mmHg 55%

    Demain, 6 Avril, Lundi

    Heure Température Précipitation Vent Pression Humidité
    00:00 +4°C° 0 mm 1 m/s 760 mmHg 56%
    01:00 +3°C° 0 mm 0 m/s 760 mmHg 57%
    02:00 +2°C° 0 mm 0 m/s 760 mmHg 58%
    03:00 +3°C° 0 mm 1 m/s 760 mmHg 58%
    04:00 +3°C° 0 mm 1 m/s 760 mmHg 59%
    05:00 +3°C° 0 mm 1 m/s 761 mmHg 59%
    06:00 +4°C° 0 mm 1 m/s 761 mmHg 56%
    07:00 +5°C° 0 mm 1 m/s 761 mmHg 54%
    08:00 +6°C° 0 mm 2 m/s 761 mmHg 51%
    09:00 +7°C° 0 mm 2 m/s 761 mmHg 46%
    10:00 +9°C° 0 mm 2 m/s 761 mmHg 41%
    11:00 +10°C° 0 mm 2 m/s 761 mmHg 36%
    12:00 +12°C° 0 mm 2 m/s 761 mmHg 34%
    13:00 +13°C° 0 mm 2 m/s 761 mmHg 32%
    14:00 +13°C° 0 mm 2 m/s 761 mmHg 30%
    15:00 +13°C° 0 mm 2 m/s 760 mmHg 31%
    16:00 +13°C° 0 mm 2 m/s 760 mmHg 32%
    17:00 +13°C° 0 mm 2 m/s 760 mmHg 33%
    18:00 +12°C° 0 mm 1 m/s 760 mmHg 37%
    19:00 +10°C° 0 mm 1 m/s 759 mmHg 41%
    20:00 +8°C° 0 mm 1 m/s 759 mmHg 44%
    21:00 +8°C° 0 mm 1 m/s 760 mmHg 46%
    22:00 +7°C° 0 mm 1 m/s 760 mmHg 47%
    23:00 +7°C° 0 mm 1 m/s 760 mmHg 48%

    Après-demain, 7 Avril, Mardi

    Heure Température Précipitation Vent Pression Humidité
    00:00 +5°C° 0 mm 0 m/s 760 mmHg 50%
    01:00 +5°C° 0 mm 0 m/s 760 mmHg 51%
    02:00 +5°C° 0 mm 0 m/s 760 mmHg 52%
    03:00 +4°C° 0 mm 0 m/s 760 mmHg 53%
    04:00 +4°C° 0 mm 0 m/s 760 mmHg 53%
    05:00 +4°C° 0 mm 0 m/s 760 mmHg 54%
    06:00 +5°C° 0 mm 0 m/s 760 mmHg 52%
    07:00 +7°C° 0 mm 0 m/s 761 mmHg 49%
    08:00 +8°C° 0 mm 0 m/s 761 mmHg 46%
    09:00 +11°C° 0 mm 1 m/s 761 mmHg 43%
    10:00 +12°C° 0 mm 1 m/s 761 mmHg 39%
    11:00 +14°C° 0 mm 2 m/s 761 mmHg 35%
    12:00 +14°C° 0 mm 2 m/s 760 mmHg 34%
    13:00 +15°C° 0 mm 2 m/s 760 mmHg 32%
    14:00 +16°C° 0 mm 2 m/s 760 mmHg 31%
    15:00 +16°C° 0 mm 2 m/s 760 mmHg 32%
    16:00 +16°C° 0 mm 2 m/s 759 mmHg 34%
    17:00 +15°C° 0 mm 2 m/s 759 mmHg 35%
    18:00 +14°C° 0 mm 2 m/s 759 mmHg 39%
    19:00 +12°C° 0 mm 2 m/s 759 mmHg 44%
    20:00 +9°C° 0 mm 2 m/s 758 mmHg 48%
    21:00 +9°C° 0 mm 2 m/s 758 mmHg 50%
    22:00 +8°C° 0 mm 2 m/s 758 mmHg 52%
    23:00 +7°C° 0 mm 2 m/s 758 mmHg 53%

    8 Avril, Mercredi

    Heure Température Précipitation Vent Pression Humidité
    00:00 +7°C° 0 mm 3 m/s 758 mmHg 55%
    01:00 +7°C° 0 mm 3 m/s 758 mmHg 57%
    02:00 +5°C° 0 mm 3 m/s 758 mmHg 58%
    03:00 +5°C° 0 mm 3 m/s 757 mmHg 59%
    04:00 +4°C° 0 mm 3 m/s 757 mmHg 60%
    05:00 +4°C° 0 mm 3 m/s 757 mmHg 61%
    06:00 +5°C° 0 mm 3 m/s 756 mmHg 58%
    07:00 +7°C° 0 mm 4 m/s 756 mmHg 54%
    08:00 +8°C° 0 mm 4 m/s 756 mmHg 50%
    09:00 +11°C° 0 mm 4 m/s 756 mmHg 47%
    10:00 +13°C° 0 mm 4 m/s 755 mmHg 43%
    11:00 +15°C° 0 mm 5 m/s 755 mmHg 40%
    12:00 +17°C° 0 mm 4 m/s 754 mmHg 38%
    13:00 +18°C° 0 mm 4 m/s 754 mmHg 37%
    14:00 +18°C° 0 mm 4 m/s 753 mmHg 35%
    15:00 +18°C° 0 mm 4 m/s 753 mmHg 38%
    16:00 +18°C° 0 mm 4 m/s 752 mmHg 40%
    17:00 +18°C° 0 mm 3 m/s 752 mmHg 43%
    18:00 +16°C° 0 mm 3 m/s 752 mmHg 48%
    19:00 +13°C° 0 mm 3 m/s 751 mmHg 54%
    20:00 +12°C° 0 mm 2 m/s 751 mmHg 60%
    21:00 +12°C° 0 mm 2 m/s 751 mmHg 63%
    22:00 +10°C° 0 mm 2 m/s 751 mmHg 66%
    23:00 +10°C° 0 mm 2 m/s 751 mmHg 70%

    9 Avril, Jeudi

    Heure Température Précipitation Vent Pression Humidité
    00:00 +9°C° 0 mm 2 m/s 751 mmHg 72%
    01:00 +9°C° 0 mm 2 m/s 750 mmHg 75%
    02:00 +9°C° 0 mm 1 m/s 750 mmHg 78%
    03:00 +8°C° 0 mm 2 m/s 750 mmHg 78%
    04:00 +8°C° 0 mm 2 m/s 749 mmHg 78%
    05:00 +8°C° 0 mm 2 m/s 749 mmHg 78%
    06:00 +9°C° 0 mm 3 m/s 749 mmHg 74%
    07:00 +10°C° 0 mm 3 m/s 749 mmHg 69%
    08:00 +11°C° 0 mm 3 m/s 748 mmHg 64%
    09:00 +12°C° 0 mm 3 m/s 748 mmHg 63%
    10:00 +13°C° 0 mm 4 m/s 748 mmHg 62%
    11:00 +14°C° 0 mm 4 m/s 747 mmHg 60%
    12:00 +15°C° 0 mm 4 m/s 747 mmHg 57%
    13:00 +15°C° 0 mm 4 m/s 746 mmHg 54%
    14:00 +17°C° 0 mm 4 m/s 746 mmHg 51%
    15:00 +15°C° 0 mm 4 m/s 745 mmHg 52%
    16:00 +15°C° 0 mm 4 m/s 745 mmHg 52%
    17:00 +15°C° 0 mm 4 m/s 744 mmHg 53%
    18:00 +14°C° 0 mm 3 m/s 744 mmHg 58%
    19:00 +13°C° 0 mm 2 m/s 744 mmHg 62%
    20:00 +12°C° 0 mm 2 m/s 743 mmHg 67%
    21:00 +10°C° 0.5 mm 3 m/s 743 mmHg 73%
    22:00 +10°C° 0.5 mm 4 m/s 743 mmHg 78%
    23:00 +8°C° 0.5 mm 5 m/s 743 mmHg 84%

    10 Avril, Vendredi

    Heure Température Précipitation Vent Pression Humidité
    00:00 +7°C° 0.1 mm 5 m/s 743 mmHg 81%
    01:00 +6°C° 0.1 mm 5 m/s 743 mmHg 78%
    02:00 +6°C° 0.1 mm 5 m/s 744 mmHg 75%
    03:00 +3°C° 0 mm 6 m/s 744 mmHg 78%
    04:00 +2°C° 0 mm 6 m/s 744 mmHg 80%
    05:00 +1°C° 0 mm 6 m/s 745 mmHg 82%
    06:00 +2°C° 0 mm 7 m/s 745 mmHg 78%
    07:00 +2°C° 0 mm 7 m/s 745 mmHg 73%
    08:00 +2°C° 0 mm 8 m/s 746 mmHg 69%
    09:00 +2°C° 0 mm 8 m/s 746 mmHg 64%
    10:00 +4°C° 0 mm 8 m/s 746 mmHg 60%
    11:00 +5°C° 0 mm 8 m/s 746 mmHg 55%
    12:00 +5°C° 0 mm 8 m/s 747 mmHg 50%
    13:00 +6°C° 0 mm 8 m/s 747 mmHg 45%
    14:00 +7°C° 0 mm 8 m/s 747 mmHg 40%
    15:00 +6°C° 0 mm 8 m/s 747 mmHg 41%
    16:00 +6°C° 0 mm 8 m/s 747 mmHg 41%
    17:00 +5°C° 0 mm 8 m/s 747 mmHg 42%
    18:00 +4°C° 0 mm 7 m/s 748 mmHg 47%
    19:00 +3°C° 0 mm 6 m/s 748 mmHg 52%
    20:00 +2°C° 0 mm 5 m/s 749 mmHg 58%
    21:00 +1°C° 0 mm 5 m/s 749 mmHg 59%
    22:00 +1°C° 0 mm 5 m/s 749 mmHg 60%
    23:00 +1°C° 0 mm 5 m/s 750 mmHg 62%
    Voir plus